Time,TemperatureF,DewpointF,PressureIn,WindDirection,WindDirectionDegrees,WindSpeedMPH,WindSpeedGustMPH,Humidity,HourlyPrecipIn,Conditions,Clouds,dailyrainin,SoftwareType,DateUTC
2015-03-06 00:01:00,27.4,19.0,25.43,WNW,292,5.0,7.0,70,0.00,,,0.00,weatherlink.com 1.10,2015-03-06 07:01:00,
2015-03-06 00:16:00,27.7,19.0,25.42,West,268,4.0,9.0,70,0.00,,,0.00,weatherlink.com 1.10,2015-03-06 07:16:00,
2015-03-06 00:31:00,27.7,19.0,25.42,WNW,290,6.0,9.0,70,0.00,,,0.00,weatherlink.com 1.10,2015-03-06 07:31:00,
2015-03-06 00:46:00,28.1,19.0,25.42,WNW,290,5.0,11.0,69,0.00,,,0.00,weatherlink.com 1.10,2015-03-06 07:46:00,
2015-03-06 01:01:00,28.5,20.0,25.42,West,264,6.0,10.0,69,0.00,,,0.00,weatherlink.com 1.10,2015-03-06 08:01:00,
2015-03-06 01:16:00,28.7,19.0,25.43,West,278,5.0,10.0,68,0.00,,,0.00,weatherlink.com 1.10,2015-03-06 08:16:00,
2015-03-06 01:31:00,28.5,19.0,25.43,West,271,6.0,7.0,68,0.00,,,0.00,weatherlink.com 1.10,2015-03-06 08:31:00,
2015-03-06 01:46:00,28.5,19.0,25.43,West,276,4.0,8.0,68,0.00,,,0.00,weatherlink.com 1.10,2015-03-06 08:46:00,
2015-03-06 02:01:00,28.2,19.0,25.43,WNW,288,3.0,8.0,69,0.00,,,0.00,weatherlink.com 1.10,2015-03-06 09:01:00,
2015-03-06 02:16:00,27.7,19.0,25.42,WNW,285,3.0,6.0,70,0.00,,,0.00,weatherlink.com 1.10,2015-03-06 09:16:00,
2015-03-06 02:31:00,27.7,19.0,25.42,West,281,3.0,5.0,70,0.00,,,0.00,weatherlink.com 1.10,2015-03-06 09:31:00,
2015-03-06 02:46:00,28.2,19.0,25.41,West,274,2.0,6.0,69,0.00,,,0.00,weatherlink.com 1.10,2015-03-06 09:46:00,
2015-03-06 03:01:00,28.1,19.0,25.41,West,276,3.0,5.0,69,0.00,,,0.00,weatherlink.com 1.10,2015-03-06 10:01:00,
2015-03-06 03:16:00,28.5,20.0,25.41,WSW,255,3.0,7.0,69,0.00,,,0.00,weatherlink.com 1.10,2015-03-06 10:16:00,
2015-03-06 03:31:00,28.8,19.0,25.41,WNW,298,3.0,7.0,68,0.00,,,0.00,weatherlink.com 1.10,2015-03-06 10:31:00,
2015-03-06 03:46:00,28.7,20.0,25.41,WNW,282,3.0,7.0,69,0.00,,,0.00,weatherlink.com 1.10,2015-03-06 10:46:00,
2015-03-06 04:01:00,28.3,19.0,25.41,WSW,249,4.0,4.0,69,0.00,,,0.00,weatherlink.com 1.10,2015-03-06 11:01:00,
2015-03-06 04:16:00,29.0,20.0,25.41,WNW,283,2.0,5.0,68,0.00,,,0.00,weatherlink.com 1.10,2015-03-06 11:16:00,
2015-03-06 04:32:00,30.1,20.0,25.42,WNW,285,2.0,4.0,65,0.00,,,0.00,weatherlink.com 1.10,2015-03-06 11:32:00,
2015-03-06 04:47:00,31.6,20.0,25.42,NW,310,7.0,7.0,62,0.00,,,0.00,weatherlink.com 1.10,2015-03-06 11:47:00,
2015-03-06 05:02:00,31.3,20.0,25.42,West,262,7.0,9.0,62,0.00,,,0.00,weatherlink.com 1.10,2015-03-06 12:02:00,
2015-03-06 05:17:00,30.9,20.0,25.42,WNW,286,5.0,11.0,63,0.00,,,0.00,weatherlink.com 1.10,2015-03-06 12:17:00,
2015-03-06 05:32:00,31.4,19.0,25.42,WSW,257,6.0,10.0,61,0.00,,,0.00,weatherlink.com 1.10,2015-03-06 12:32:00,
2015-03-06 05:47:00,31.0,19.0,25.42,WSW,256,6.0,11.0,62,0.00,,,0.00,weatherlink.com 1.10,2015-03-06 12:47:00,
2015-03-06 06:02:00,30.8,19.0,25.43,West,260,8.0,13.0,62,0.00,,,0.00,weatherlink.com 1.10,2015-03-06 13:02:00,
2015-03-06 06:17:00,31.2,19.0,25.43,West,273,7.0,12.0,61,0.00,,,0.00,weatherlink.com 1.10,2015-03-06 13:17:00,
2015-03-06 06:32:00,32.7,19.0,25.42,West,266,6.0,17.0,57,0.00,,,0.00,weatherlink.com 1.10,2015-03-06 13:32:00,
2015-03-06 06:47:00,32.9,19.0,25.43,West,280,6.0,14.0,56,0.00,,,0.00,weatherlink.com 1.10,2015-03-06 13:47:00,
2015-03-06 07:02:00,32.1,18.0,25.43,WNW,285,6.0,9.0,57,0.00,,,0.00,weatherlink.com 1.10,2015-03-06 14:02:00,
2015-03-06 07:17:00,33.1,18.0,25.44,WNW,287,6.0,7.0,55,0.00,,,0.00,weatherlink.com 1.10,2015-03-06 14:17:00,
2015-03-06 07:32:00,34.2,19.0,25.44,West,270,5.0,7.0,54,0.00,,,0.00,weatherlink.com 1.10,2015-03-06 14:32:00,
2015-03-06 07:47:00,35.8,20.0,25.44,West,259,6.0,9.0,52,0.00,,,0.00,weatherlink.com 1.10,2015-03-06 14:47:00,
2015-03-06 08:02:00,38.3,20.0,25.45,West,266,7.0,11.0,49,0.00,,,0.00,weatherlink.com 1.10,2015-03-06 15:02:00,
2015-03-06 08:17:00,41.1,19.0,25.45,NW,326,7.0,13.0,42,0.00,,,0.00,weatherlink.com 1.10,2015-03-06 15:17:00,
2015-03-06 08:32:00,42.9,19.0,25.45,NW,323,10.0,19.0,38,0.00,,,0.00,weatherlink.com 1.10,2015-03-06 15:32:00,
2015-03-06 08:47:00,44.1,19.0,25.45,NW,316,17.0,20.0,36,0.00,,,0.00,weatherlink.com 1.10,2015-03-06 15:47:00,
2015-03-06 09:02:00,45.2,19.0,25.45,NNW,329,12.0,22.0,35,0.00,,,0.00,weatherlink.com 1.10,2015-03-06 16:02:00,
2015-03-06 09:17:00,46.0,19.0,25.45,NNW,347,16.0,22.0,34,0.00,,,0.00,weatherlink.com 1.10,2015-03-06 16:17:00,
2015-03-06 09:32:00,47.1,18.0,25.45,NNW,338,13.0,21.0,31,0.00,,,0.00,weatherlink.com 1.10,2015-03-06 16:32:00,
2015-03-06 09:48:00,48.0,17.0,25.45,NNW,327,13.0,24.0,29,0.00,,,0.00,weatherlink.com 1.10,2015-03-06 16:48:00,
2015-03-06 10:03:00,48.5,17.0,25.45,North,349,10.0,21.0,29,0.00,,,0.00,weatherlink.com 1.10,2015-03-06 17:03:00,
2015-03-06 10:18:00,49.2,17.0,25.45,NW,304,14.0,24.0,28,0.00,,,0.00,weatherlink.com 1.10,2015-03-06 17:18:00,
2015-03-06 10:33:00,49.5,17.0,25.45,NNW,344,10.0,21.0,27,0.00,,,0.00,weatherlink.com 1.10,2015-03-06 17:33:00,
2015-03-06 10:48:00,50.4,17.0,25.45,NNW,344,15.0,18.0,27,0.00,,,0.00,weatherlink.com 1.10,2015-03-06 17:48:00,
2015-03-06 11:03:00,50.5,16.0,25.45,NNW,347,10.0,21.0,25,0.00,,,0.00,weatherlink.com 1.10,2015-03-06 18:03:00,
2015-03-06 11:18:00,50.8,16.0,25.45,NW,305,13.0,22.0,25,0.00,,,0.00,weatherlink.com 1.10,2015-03-06 18:18:00,
2015-03-06 11:33:00,51.2,16.0,25.44,NNW,338,7.0,19.0,25,0.00,,,0.00,weatherlink.com 1.10,2015-03-06 18:33:00,
2015-03-06 11:48:00,51.6,17.0,25.44,NNW,335,11.0,19.0,25,0.00,,,0.00,weatherlink.com 1.10,2015-03-06 18:48:00,
2015-03-06 12:03:00,52.6,17.0,25.44,NW,316,8.0,20.0,24,0.00,,,0.00,weatherlink.com 1.10,2015-03-06 19:03:00,
2015-03-06 12:18:00,52.7,17.0,25.44,NNW,338,14.0,20.0,24,0.00,,,0.00,weatherlink.com 1.10,2015-03-06 19:18:00,
2015-03-06 12:33:00,53.2,17.0,25.43,NW,308,7.0,19.0,24,0.00,,,0.00,weatherlink.com 1.10,2015-03-06 19:33:00,
2015-03-06 13:03:00,53.2,16.0,25.43,NNW,340,11.0,19.0,23,0.00,,,0.00,weatherlink.com 1.10,2015-03-06 20:03:00,
2015-03-06 13:18:00,53.3,17.0,25.43,NNW,345,14.0,20.0,24,0.00,,,0.00,weatherlink.com 1.10,2015-03-06 20:18:00,
2015-03-06 13:33:00,53.5,17.0,25.42,NW,314,8.0,18.0,24,0.00,,,0.00,weatherlink.com 1.10,2015-03-06 20:33:00,
2015-03-06 13:48:00,53.7,18.0,25.42,NW,319,4.0,24.0,24,0.00,,,0.00,weatherlink.com 1.10,2015-03-06 20:48:00,